| time (UTC) | temp C | wind direction | speed KPH | gust KPH | rain 1hr cm | rain 24hr cm | rain mn cm | humidity % | barometer mb |
| 20260505164516 | 12 | 164 | 4.8 | 20.9 | 0.03 | 0.81 | 0.81 | 91 | 1008.7 |
| 20260505163016 | 12 | 163 | 6.4 | 19.3 | 0.05 | 0.81 | 0.81 | 91 | 1008.5 |
| 20260505161514 | 11 | 162 | 6.4 | 19.3 | 0.10 | 0.81 | 0.81 | 93 | 1008.2 |
| 20260505153030 | 10 | 163 | 6.4 | 25.7 | 0.48 | 0.76 | 0.76 | 94 | 1008.3 |
| 20260505151509 | 10 | 164 | 22.5 | 29.0 | 0.43 | 0.71 | 0.71 | 92 | 1008.7 |
| 20260505124547 | -17 | 0.0 | 0.0 | 0.00 | 0.28 | 0.28 | 1007.8 | ||
| 20260505123051 | -17 | 0.0 | 0.0 | 0.00 | 0.28 | 0.28 | 1007.9 | ||
| 20260505121537 | -17 | 0.0 | 0.0 | 0.00 | 0.28 | 0.28 | 1007.7 | ||
| 20260505120046 | -17 | 0.0 | 0.0 | 0.00 | 0.28 | 0.28 | 1007.1 | ||
| 20260505114531 | -17 | 0.0 | 0.0 | 0.00 | 0.28 | 0.28 | 1006.9 | ||
| 20260505113025 | -17 | 0.0 | 0.0 | 0.00 | 0.28 | 0.28 | 1006.7 | ||
| 20260505111530 | -17 | 0.0 | 0.0 | 0.00 | 0.28 | 0.28 | 1006.4 | ||
| 20260505101502 | -17 | 0.0 | 0.0 | 0.00 | 0.28 | 0.28 | 1005.4 | ||
| 20260505100059 | -17 | 0.0 | 0.0 | 0.03 | 0.28 | 0.28 | 1006.3 | ||
| 20260505094555 | -17 | 0.0 | 0.0 | 0.08 | 0.41 | 0.28 | 1006.6 | ||
| 20260505093051 | -17 | 0.0 | 0.0 | 0.10 | 0.41 | 0.28 | 1006.4 | ||
| 20260505091554 | 13 | 224 | 8.0 | 14.5 | 0.28 | 0.41 | 0.28 | 92 | 1006.6 |
| 20260505090045 | 13 | 160 | 4.8 | 8.0 | 0.25 | 0.38 | 0.25 | 92 | 1006.8 |
| 20260505084553 | 14 | 162 | 0.0 | 0.0 | 0.20 | 0.53 | 0.20 | 90 | 1007.1 |
| 20260505083054 | 15 | 158 | 3.2 | 22.5 | 0.18 | 0.51 | 0.18 | 85 | 1007.6 |
| 20260505081536 | 16 | 159 | 17.7 | 25.7 | 0.00 | 0.33 | 0.00 | 74 | 1007.7 |
| 20260505080031 | 17 | 160 | 8.0 | 16.1 | 0.00 | 0.33 | 0.00 | 68 | 1006.7 |
| 20260505074533 | 18 | 160 | 3.2 | 17.7 | 0.00 | 0.51 | 0.00 | 66 | 1006.7 |
| 20260505073026 | 18 | 161 | 6.4 | 20.9 | 0.00 | 0.51 | 0.00 | 68 | 1007.1 |
| 20260505071524 | 19 | 153 | 9.7 | 20.9 | 0.00 | 0.51 | 0.00 | 64 | 1006.0 |
| 20260505070021 | 20 | 150 | 12.9 | 19.3 | 0.00 | 0.51 | 0.00 | 63 | 1005.7 |
| 20260505064522 | 20 | 149 | 17.7 | 25.7 | 0.00 | 0.51 | 0.00 | 63 | 1005.6 |
| 20260505063015 | 20 | 154 | 17.7 | 29.0 | 0.00 | 0.51 | 0.00 | 62 | 1004.9 |
| 20260505061513 | 20 | 155 | 16.1 | 35.4 | 0.00 | 0.51 | 0.00 | 62 | 1004.8 |
| 20260505060011 | 20 | 150 | 22.5 | 37.0 | 0.00 | 0.51 | 0.00 | 61 | 1004.6 |
| 20260505054517 | 20 | 148 | 22.5 | 35.4 | 0.00 | 0.51 | 0.00 | 60 | 1004.4 |
| 20260505053006 | 20 | 154 | 19.3 | 37.0 | 0.00 | 0.51 | 0.00 | 60 | 1004.5 |
| 20260505051502 | 20 | 153 | 20.9 | 33.8 | 0.00 | 0.51 | 0.00 | 59 | 1004.4 |
| 20260505050109 | 20 | 151 | 24.1 | 33.8 | 0.00 | 0.51 | 0.00 | 59 | 1004.0 |
| 20260505041607 | 20 | 150 | 29.0 | 40.2 | 0.00 | 0.51 | 0.51 | 56 | 1004.1 |
| 20260505040105 | 21 | 155 | 20.9 | 40.2 | 0.00 | 0.51 | 0.51 | 56 | 1004.3 |
| 20260505034611 | 21 | 154 | 20.9 | 32.2 | 0.00 | 0.51 | 0.51 | 55 | 1004.5 |
| 20260505033057 | 21 | 158 | 19.3 | 32.2 | 0.00 | 0.51 | 0.51 | 54 | 1004.6 |
| 20260505031558 | 21 | 154 | 20.9 | 35.4 | 0.00 | 0.51 | 0.51 | 53 | 1004.6 |
| 20260505030104 | 21 | 155 | 24.1 | 43.5 | 0.00 | 0.51 | 0.51 | 53 | 1004.6 |
| 20260505024609 | 21 | 155 | 24.1 | 33.8 | 0.00 | 0.51 | 0.51 | 54 | 1004.5 |
| 20260505023054 | 21 | 156 | 20.9 | 33.8 | 0.00 | 0.51 | 0.51 | 56 | 1004.5 |
| 20260505021553 | 21 | 155 | 24.1 | 38.6 | 0.00 | 0.51 | 0.51 | 53 | 1004.4 |
| 20260505020105 | 21 | 159 | 24.1 | 38.6 | 0.00 | 0.51 | 0.51 | 54 | 1004.1 |
| 20260505014552 | 22 | 150 | 22.5 | 37.0 | 0.00 | 0.51 | 0.51 | 51 | 1004.7 |
| 20260505013051 | 22 | 150 | 29.0 | 40.2 | 0.00 | 0.51 | 0.51 | 51 | 1004.1 |
| 20260505011555 | 22 | 153 | 17.7 | 33.8 | 0.00 | 0.51 | 0.51 | 53 | 1004.0 |
| 20260505010107 | 22 | 150 | 11.3 | 22.5 | 0.00 | 0.51 | 0.51 | 51 | 1004.0 |
| 20260505004602 | 22 | 153 | 17.7 | 25.7 | 0.00 | 0.51 | 0.51 | 50 | 1003.6 |
| 20260505003052 | 22 | 154 | 19.3 | 32.2 | 0.00 | 0.51 | 0.51 | 49 | 1003.5 |
| 20260505001550 | 22 | 155 | 12.9 | 29.0 | 0.00 | 0.51 | 0.51 | 49 | 1003.2 |
| 20260505000047 | 23 | 155 | 17.7 | 27.4 | 0.00 | 0.51 | 0.51 | 47 | 1003.1 |
| 20260504234545 | 23 | 156 | 22.5 | 35.4 | 0.00 | 0.51 | 0.51 | 45 | 1003.2 |
| 20260504233047 | 23 | 153 | 16.1 | 33.8 | 0.00 | 0.51 | 0.51 | 45 | 1003.2 |
| 20260504231613 | 23 | 155 | 14.5 | 27.4 | 0.00 | 0.51 | 0.51 | 46 | 1003.3 |
| 20260504230043 | 23 | 153 | 19.3 | 37.0 | 0.00 | 0.51 | 0.51 | 44 | 1003.2 |
| 20260504224543 | 23 | 155 | 20.9 | 41.8 | 0.00 | 0.51 | 0.51 | 44 | 1002.9 |
| 20260504223040 | 23 | 155 | 25.7 | 38.6 | 0.00 | 0.51 | 0.51 | 47 | 1003.0 |
| 20260504221552 | 23 | 153 | 25.7 | 35.4 | 0.00 | 0.51 | 0.51 | 48 | 1003.8 |
| 20260504220036 | 23 | 155 | 24.1 | 45.1 | 0.00 | 0.51 | 0.51 | 48 | 1003.9 |
| 20260504214536 | 23 | 154 | 27.4 | 53.1 | 0.00 | 0.51 | 0.51 | 48 | 1003.9 |
| 20260504213040 | 22 | 153 | 29.0 | 49.9 | 0.00 | 0.51 | 0.51 | 47 | 1003.9 |
| 20260504211534 | 22 | 153 | 22.5 | 33.8 | 0.00 | 0.51 | 0.51 | 53 | 1004.1 |
| 20260504210028 | 22 | 154 | 20.9 | 30.6 | 0.00 | 0.51 | 0.51 | 55 | 1005.1 |
| 20260504204528 | 21 | 155 | 17.7 | 22.5 | 0.00 | 0.51 | 0.51 | 58 | 1005.7 |
| 20260504203025 | 21 | 150 | 14.5 | 22.5 | 0.00 | 0.51 | 0.51 | 62 | 1005.7 |
| 20260504201527 | 21 | 155 | 11.3 | 16.1 | 0.00 | 0.51 | 0.51 | 61 | 1005.8 |
| 20260504200026 | 21 | 148 | 0.0 | 0.0 | 0.00 | 0.51 | 0.51 | 63 | 1007.3 |
| 20260504194524 | 21 | 149 | 0.0 | 0.0 | 0.00 | 0.51 | 0.51 | 63 | 1007.6 |
| 20260504193022 | 22 | 148 | 0.0 | 17.7 | 0.00 | 0.51 | 0.51 | 59 | 1007.8 |
| 20260504191525 | 22 | 150 | 12.9 | 19.3 | 0.00 | 0.51 | 0.51 | 58 | 1007.3 |
| 20260504190021 | 22 | 155 | 12.9 | 25.7 | 0.00 | 0.51 | 0.51 | 57 | 1006.1 |
| 20260504184537 | 22 | 155 | 22.5 | 37.0 | 0.00 | 0.51 | 0.51 | 57 | 1005.8 |
| 20260504183018 | 23 | 156 | 22.5 | 41.8 | 0.00 | 0.51 | 0.51 | 57 | 1006.0 |
| 20260504181518 | 23 | 154 | 32.2 | 46.7 | 0.00 | 0.51 | 0.51 | 55 | 1006.2 |
| 20260504180014 | 23 | 157 | 25.7 | 40.2 | 0.00 | 0.51 | 0.51 | 56 | 1006.4 |
| 20260504174510 | 23 | 153 | 27.4 | 48.3 | 0.00 | 0.51 | 0.51 | 56 | 1006.6 |
| 20260504173014 | 23 | 156 | 30.6 | 41.8 | 0.00 | 0.51 | 0.51 | 55 | 1006.9 |
| 20260504171503 | 22 | 155 | 22.5 | 35.4 | 0.00 | 0.51 | 0.51 | 57 | 1007.1 |